Location: Le Rocchette
(44.3500°N, 7.8333°E)
Time: 03:19:22
(UTC+00:00)

STARLINK-44 - Pass Details

Date: 17 November 2019
Orbit: 529 x 531 km, 53.0° (Epoch: 15 December)

Event Time Altitude Azimuth Distance (km) Brightness Sun altitude
Exits shadow 05:50:01 - 252° (WSW) 2,430 6.4 -6.9°
Reaches altitude 10° 05:51:38 10° 256° (WSW) 1,795 5.7 -6.6°
Maximum altitude 05:55:36 52° 333° (NNW) 690 3.9 -5.9°
Drops below altitude 10° 05:59:43 10° 51° (NE) 1,857 6.7 -5.2°
Sets 06:02:04 0° 56° (NE) 2,776 7.7 -4.8°
